ARIANE 5 DEB (SYLDA), 42743

Orbit data source: Space-Track

ARIANE 5 DEB (SYLDA), 42743 is space debris in HEO originally from a launch on Thu, 01 Jun 2017 UTC launched from the French Guiana (FRGUI). Debris objects in space refer to the collection of defunct objects orbiting the Earth. Examples of debris include non-operational satellites, rocket bodies, and fragments generated from explosions, collisions, or faulty payload assembly.

Loading next visibility...
Identifier
42743, 2017-029D
Orbit
HEO
Country
Flag of FRFR
Related business
Manufacturer
ADS/Bremen
Mission
Spacecraft
Bus & Motor
SYLDA 5, Unknown motor
Mass
440 kg wet, 440 kg dry
Launch date (UTC)
2017-06-01 (9 years ago)
Launch vehicle
Unknown
Launch site
French Guiana (FRGUI)
Object type
Payload
Rocket body
Debris
Shape & HBR
Cyl, 2.8 m
Radar Cross Section
27.391 m², Large (>1 m²)

Expand to show TLE details & history
Last TLE update: 2 days ago

TLE from 2 days ago
0 ARIANE 5 DEB (SYLDA)
1 42743U 17029D   26171.27179572  .00099946  00000-0  84509-2 0  9991
2 42743   5.9129 199.3709 6334704 251.3359  33.4357  3.58751113 89052
Epoch: 2026-06-20T06:31Z
TLE epoch observation values (Epoch: 2026-06-20T06:31:23.150Z)
Latitude
-0.00001°
Longitude
-166.93418°
Altitude
7,150.678 km
Speed
6.067 km/s
True Right ascension
13h 17m 36s
True Declination
0° 00' 00"
Sunlit
Object was in daylight at epoch
Visualization orbit readout
Latitude
Unknown
Longitude
Unknown
Altitude
Unknown
Speed
Unknown
Apparent Right ascension
Unknown
Apparent Declination
Unknown
Sunlit
N/A
Visualization observer readout
Local Sidereal Time
23:27:00
Azimuth
Unknown
Elevation
Unknown
Doppler factor
Unknown
Orbital elements
Apogee altitude
23,073.511 km
Perigee altitude
230.431 km
Semi-major axis
18,030.108 km
Eccentricity
0.63347
Inclination
5.9129°
RAAN
199.3709°
Arg. of periapsis
251.3359°
True anomaly
108.60769°
Mean anomaly
33.4357°
Eccentric anomaly
66.79451°
Mean motion
0.89649 °/min
Orbital period
401.57 mins
BSTAR
0.0084509
Loading maneuver chart data...
Computing Atmospheric mass density...
Loading historical data...
Loading historical data...
Loading historical data...
Loading historical data...
Loading historical data...
Loading historical data...
Loading historical data...
Other satellites on launch #29 in the year 2017 (2017-06-01 UTC)

Documentation

Showing up to 5 results
|